FENGYUN 1C DEB

Satellite information

Favourite Embed

Satellite Type and Status

DEBRISIN ORBIT

Key statistics

Satellite FENGYUN 1C DEB at a glance.

Uptime

9618

Days in orbit

Revolutions

≈ 14.3

Per day

Orbit

SSO

Sun Synchronous Orbit

Inclination

98.1

Latest

Satellite identification and parameters

Extended collection of information and parameters for FENGYUN 1C DEB.

Object identification

Identified? True

Debris? True

Object name: FENGYUN 1C DEB

International designator: 1999-025BYA

Object number (NORAD): 31535

Object ID (CCSDS): 31535

Country: PEOPLES REPUBLIC OF CHINA (PRC)

Current information (Y/N): Y

RCS size: SMALL

Orbital parameters

Period: 100.854 minutes

Inclination: 98.05 deg

SMA: 7177.2 km

Apoapsis: 863.257 km

Periapsis: 734.873 km

RAAN: 97.2433 deg

Eccentricy: 0.00894386

Argument of periapsis: 123.7318 deg

Mean anomaly: 237.2429 deg

Mean motion: 14.27809287 rev/day

Mean motion (dot): 0.00001257 rev/day2

B* drag term: 0.00050190789 1/REarth

Two-line elements (TLE)

Creation date: Aug. 27, 2025, 2:14 a.m.

Reference frame: TEME

Reference center: EARTH

Epoch: Aug. 26, 2025, 8:32 p.m. UTC

TLE line 0: 0 FENGYUN 1C DEB

TLE line 1: 1 31535U 99025BYA 25238.85602768 .00001257 00000-0 50191-3 0 9998

TLE line 2: 2 31535 98.0500 97.2433 0089439 123.7318 237.2429 14.27809287703914

Live tracking on map

Real-time ground track for satellite FENGYUN 1C DEB.

In-orbit conjunctions

A list of the most updated potential collisions computed for object FENGYUN 1C DEB.

Target Orbit TCA Probability of collision Miss distance Type
CZ-2D DEB SSO 2025-09-01 08:47:59 0.000156603 230.0 (m) DEBRIS
COSMOS 2251 DEB LEO 2025-01-03 01:40:41 0.0002103544 146.0 (m) DEBRIS

Associated space launch

Chinese polar orbiting meteorological satellite

FENGYUN 1C DEB was lifted into orbit during the mission ‘Long March 4B | Feng Yun 1C’, on board a Long March 4B space rocket.

The launch took place on May 10, 1999, 1:33 a.m. from Launch Complex 7.

For more information about the launch, click the button.

Launch to space Long March 4B | Feng Yun 1C
Long March 4B | Feng Yun 1C

Agency: N/A

Status: Launch Successful

Launch date: May 10, 1999, 1:33 a.m. UTC

Rocket: Long March 4B

Launch pad: Launch Complex 7

Location: Taiyuan Satellite Launch Center, People's Republic of China

...

Latest news about this satellite

There are no fresh news available about this satellite. Check back as we update our databases every day.


Newsletter sign-up

Weekly statistics, charts and insights to help you stay on top of the space industry.